Fresno, CA

7:16 PM PDT on June 21, 2018 (GMT -0700)
Fresno Yosemite International

Weather History for KFAT - October, 2017

Change the Weather History Date:

Saturday, October 7, 2017

  Actual Average Record
Temperature  
Mean Temperature 71 °F 70 °F  
Max Temperature 88 °F 84 °F 97 °F (2014)
Min Temperature 53 °F 56 °F 39 °F (1969)
Degree Days  
Heating Degree Days 0    
Month to date heating degree days 6  
Since 1 July heating degree days 10  
Cooling Degree Days 6    
Month to date cooling degree days 15  
Year to date cooling degree days 2429  
Growing Degree Days 20 (Base 50)    
Moisture  
Dew Point 40 °F    
Average Humidity 37    
Maximum Humidity 59    
Minimum Humidity 15    
Precipitation  
Precipitation 0.00 in 0.01 in 0.67 in (1973)
Month to date precipitation 0.00 0.08  
Year to date precipitation 12.80 8.11  
Snow  
Snow 0.00 in - - ()
Month to date snowfall 0.0  
Since 1 July snowfall 0.0  
Since 1 September snowfall 0.0  
Snow Depth 0.00 in    
Sea Level Pressure  
Sea Level Pressure 29.87 in    
Wind  
Wind Speed 3 mph (ENE)    
Max Wind Speed 9 mph    
Max Gust Speed 12 mph    
Visibility 9 miles    
Events      
T = Trace of Precipitation, MM = Missing Value Source: NWS Daily Summary

Daily Weather History Graph

Daily Weather History Graph

Search for Another Location

Airport or City:

Astronomy

Oct. 07, 2017 Rise Set
Actual Time 6:59 AM PDT 6:32 PM PDT
Civil Twilight 6:33 AM PDT 6:58 PM PDT
Nautical Twilight 6:03 AM PDT 7:28 PM PDT
Astronomical Twilight 5:33 AM PDT 7:58 PM PDT
Moon 8:17 PM PDT (10/7) 8:57 AM PDT (10/7)
Length of Visible Light 12h 25m
Length of Day
11h 33m
Waning Gibbous, 95% of the Moon is Illuminated
Oct 7
Waning Gibbous
Oct 12
Last Quarter
Oct 19
New
Oct 27
First Quarter
Nov 3
Full

Hourly Weather History & Observations

Time (PDT) Temp. Dew Point Humidity Pressure Visibility Wind Dir Wind Speed Gust Speed Precip Events Conditions
12:53 AM 62.1 °F 41.0 °F 46% 29.96 in 10.0 mi SE 3.5 mph - N/A   Partly Cloudy
1:53 AM 60.1 °F 41.0 °F 49% 29.96 in 10.0 mi Calm Calm - N/A   Scattered Clouds
2:53 AM 57.9 °F 42.1 °F 56% 29.95 in 10.0 mi East 4.6 mph - N/A   Scattered Clouds
3:53 AM 55.9 °F 41.0 °F 57% 29.94 in 10.0 mi ENE 3.5 mph - N/A   Scattered Clouds
4:53 AM 55.0 °F 39.0 °F 55% 29.94 in 10.0 mi ENE 4.6 mph - N/A   Scattered Clouds
5:53 AM 55.0 °F 39.0 °F 55% 29.94 in 10.0 mi Calm Calm - N/A   Scattered Clouds
6:53 AM 55.0 °F 37.0 °F 51% 29.93 in 10.0 mi SE 3.5 mph - N/A   Scattered Clouds
7:53 AM 55.9 °F 37.9 °F 51% 29.93 in 9.0 mi SE 5.8 mph - N/A   Clear
8:53 AM 62.1 °F 37.9 °F 41% 29.94 in 8.0 mi ESE 3.5 mph - N/A   Clear
9:53 AM 69.1 °F 37.0 °F 31% 29.94 in 8.0 mi SE 8.1 mph - N/A   Clear
10:53 AM 73.0 °F 41.0 °F 31% 29.94 in 6.0 mi SSE 5.8 mph - N/A   Haze
11:53 AM 77.0 °F 39.9 °F 26% 29.92 in 8.0 mi Calm Calm - N/A   Clear
12:53 PM 81.0 °F 39.0 °F 22% 29.89 in 9.0 mi North 3.5 mph - N/A   Clear
1:53 PM 84.0 °F 37.9 °F 19% 29.86 in 8.0 mi NNW 5.8 mph - N/A   Clear
2:53 PM 86.0 °F 34.0 °F 16% 29.83 in 8.0 mi Calm Calm - N/A   Clear
3:53 PM 87.1 °F 33.1 °F 15% 29.81 in 10.0 mi Variable 4.6 mph - N/A   Clear
4:53 PM 87.1 °F 36.0 °F 16% 29.79 in 10.0 mi NW 9.2 mph - N/A   Partly Cloudy
5:53 PM 84.9 °F 34.0 °F 16% 29.78 in 10.0 mi NNW 4.6 mph - N/A   Partly Cloudy
6:53 PM 80.1 °F 44.1 °F 28% 29.77 in 10.0 mi NW 4.6 mph - N/A   Partly Cloudy
7:53 PM 75.9 °F 43.0 °F 31% 29.78 in 10.0 mi NW 4.6 mph - N/A   Clear
8:53 PM 73.0 °F 43.0 °F 34% 29.78 in 10.0 mi Calm Calm - N/A   Clear
9:53 PM 70.0 °F 44.1 °F 39% 29.78 in 10.0 mi Calm Calm - N/A   Clear
10:53 PM 66.0 °F 46.0 °F 48% 29.78 in 10.0 mi Calm Calm - N/A   Clear
11:53 PM 64.0 °F 45.0 °F 50% 29.78 in 10.0 mi Calm Calm - N/A   Clear